Weather History for Tonopah, NV

Change the Weather History Date:

Friday, November 16, 2012

  Actual Average Record
Temperature  
Mean Temperature 44 °F 40 °F  
Max Temperature 53 °F 53 °F 71 °F (1995)
Min Temperature 34 °F 26 °F 14 °F (1958)
Degree Days  
Heating Degree Days 21 25  
Month to date heating degree days 327 351  
Since 1 July heating degree days 622 823  
Cooling Degree Days 0 0  
Month to date cooling degree days 0 0  
Year to date cooling degree days 1004 783  
Moisture  
Dew Point 33 °F    
Average Humidity 67    
Maximum Humidity 92    
Minimum Humidity 41    
Precipitation  
Precipitation 0.04 in 0.02 in 0.96 in (1965)
Month to date precipitation 0.18 0.23  
Year to date precipitation 5.94 4.72  
Sea Level Pressure  
Sea Level Pressure 30.04 in    
Wind  
Wind Speed 9 mph (East)    
Max Wind Speed 18 mph    
Max Gust Speed 23 mph    
Visibility 10 miles    
Events Rain    
T = Trace of Precipitation, MM = Missing Value Source: NWS Daily Summary

Daily Weather History Graph

Daily Weather History Graph

Search for Another Location

Airport:

Trip Planner

Search our weather history database for the weather conditions in past years. The results will help you decide how hot, cold, wet, or windy it might be!

Date:

Astronomy

Nov. 16, 2012 Rise Set
Actual Time 6:30 AM PST 4:35 PM PST
Civil Twilight 6:02 AM PST 5:03 PM PST
Nautical Twilight 5:30 AM PST 5:35 PM PST
Astronomical Twilight 4:59 AM PST 6:06 PM PST
Moon 9:28 AM PST (11/16) 7:40 PM PST (11/16)
Length of Visible Light 11h 00m
Length of Day
10h 04m
Waxing Crescent, 12% of the Moon is Illuminated
Nov 16
Waxing Crescent
Nov 20
First Quarter
Nov 28
Full
Dec 6
Last Quarter
Dec 13
New

Hourly Weather History & Observations

Time (PST) Temp. Windchill Dew Point Humidity Pressure Visibility Wind Dir Wind Speed Gust Speed Precip Events Conditions
12:39 AM 35.6 °F 28.6 °F 33.8 °F 93% 30.14 in 10.0 mi NNE 9.2 mph - 0.02 in Rain Light Rain
12:56 AM 36.0 °F 28.5 °F 34.0 °F 93% 30.07 in 10.0 mi North 10.4 mph - 0.02 in Rain Light Rain
1:56 AM 37.0 °F 31.0 °F 35.1 °F 93% 30.05 in 10.0 mi North 8.1 mph - 0.02 in Rain Light Rain
2:56 AM 37.9 °F 32.7 °F 36.0 °F 93% 30.03 in 10.0 mi North 6.9 mph - 0.00 in   Overcast
3:56 AM 37.9 °F 30.9 °F 35.1 °F 89% 30.02 in 10.0 mi North 10.4 mph - N/A   Overcast
4:56 AM 37.9 °F 30.9 °F 35.1 °F 89% 30.03 in 10.0 mi NNE 10.4 mph - N/A   Overcast
5:56 AM 37.9 °F 30.0 °F 35.1 °F 89% 30.04 in 10.0 mi North 12.7 mph - N/A   Overcast
6:56 AM 39.0 °F 32.8 °F 35.1 °F 86% 30.05 in 10.0 mi North 9.2 mph - N/A   Overcast
7:56 AM 39.9 °F 34.5 °F 35.1 °F 83% 30.06 in 10.0 mi North 8.1 mph - N/A   Overcast
8:56 AM 42.1 °F 37.7 °F 37.0 °F 82% 30.07 in 10.0 mi NNE 6.9 mph - N/A   Overcast
9:56 AM 45.0 °F 43.5 °F 33.1 °F 63% 30.07 in 10.0 mi ESE 3.5 mph - N/A   Overcast
10:56 AM 48.0 °F - 30.9 °F 52% 30.05 in 10.0 mi SE 8.1 mph - N/A   Mostly Cloudy
11:56 AM 51.1 °F - 28.9 °F 43% 30.03 in 10.0 mi SSW 11.5 mph - N/A   Scattered Clouds
12:56 PM 52.0 °F - 30.9 °F 45% 30.01 in 10.0 mi South 12.7 mph - N/A   Clear
1:56 PM 52.0 °F - 30.9 °F 45% 29.99 in 10.0 mi South 9.2 mph 18.4 mph N/A   Clear
2:56 PM 53.1 °F - 30.0 °F 41% 29.98 in 10.0 mi SSW 13.8 mph - N/A   Clear
3:56 PM 51.1 °F - 30.9 °F 46% 29.99 in 10.0 mi SSW 13.8 mph - N/A   Clear
4:56 PM 46.0 °F 41.4 °F 30.0 °F 54% 30.01 in 10.0 mi South 9.2 mph - N/A   Clear
5:56 PM 44.1 °F 39.5 °F 28.9 °F 55% 30.03 in 10.0 mi SSW 8.1 mph - N/A   Clear
6:56 PM 39.9 °F 34.5 °F 30.0 °F 68% 30.05 in 10.0 mi South 8.1 mph - N/A   Clear
7:56 PM 39.9 °F 35.1 °F 28.9 °F 65% 30.05 in 10.0 mi East 6.9 mph - N/A   Clear
8:56 PM 39.9 °F 33.9 °F 32.0 °F 73% 30.05 in 10.0 mi ESE 9.2 mph - N/A   Clear
9:56 PM 39.9 °F 36.7 °F 32.0 °F 73% 30.04 in 10.0 mi SE 4.6 mph - N/A   Clear
10:56 PM 37.9 °F 32.1 °F 33.1 °F 83% 30.04 in 10.0 mi ESE 8.1 mph - N/A   Mostly Cloudy
11:56 PM 36.0 °F - 30.9 °F 82% 30.03 in 10.0 mi Calm Calm - N/A   Clear